This is the latest recevied weather packets stored in our database for station/object OK3FM-14. If no packets are shown the sender has not sent any weather packets the latest 10 day(s).
| Time | Temp. | Humidity | Pressure | Rain* | Wind** | Luminosity | Snow |
|---|---|---|---|---|---|---|---|
| 1788499066 | 16.67° C | 76% | 1019.2 hPa | - | - | - | - |
| 1788498466 | 16.11° C | 80% | 1019.2 hPa | - | - | - | - |
| 1788497866 | 15.56° C | 81% | 1019.2 hPa | - | - | - | - |
| 1788497266 | 15.56° C | 82% | 1019.4 hPa | - | - | - | - |
| 1788496666 | 15.56° C | 82% | 1019.4 hPa | - | - | - | - |
| 1788496066 | 15.56° C | 83% | 1019.3 hPa | - | - | - | - |
| 1788495466 | 15.56° C | 83% | 1019.4 hPa | - | - | - | - |
| 1788494866 | 15.56° C | 82% | 1019.4 hPa | - | - | - | - |
| 1788494266 | 15.56° C | 81% | 1019.3 hPa | - | - | - | - |
| 1788493666 | 15.56° C | 81% | 1019.3 hPa | - | - | - | - |
| 1788493066 | 16.11° C | 80% | 1019.4 hPa | - | - | - | - |
| 1788492466 | 16.11° C | 79% | 1019.4 hPa | - | - | - | - |
| 1788491866 | 16.11° C | 79% | 1019.4 hPa | - | - | - | - |
| 1788491266 | 16.67° C | 79% | 1019.5 hPa | - | - | - | - |
| 1788490666 | 16.67° C | 78% | 1019.6 hPa | - | - | - | - |
| 1788490066 | 16.67° C | 78% | 1019.8 hPa | - | - | - | - |
| 1788488866 | 17.22° C | 77% | 1019.8 hPa | - | - | - | - |
| 1788488266 | 17.22° C | 77% | 1020 hPa | - | - | - | - |
| 1788487666 | 17.22° C | 77% | 1020 hPa | - | - | - | - |
| 1788487066 | 16.67° C | 77% | 1020 hPa | - | - | - | - |
| 1788485266 | 16.67° C | 76% | 1020.1 hPa | - | - | - | - |
| 1788484666 | 16.67° C | 76% | 1020 hPa | - | - | - | - |
| 1788482266 | 17.22° C | 72% | 1020.4 hPa | - | - | - | - |
| 1788481667 | 17.22° C | 72% | 1020.5 hPa | - | - | - | - |
| 1788481066 | 17.22° C | 73% | 1020.5 hPa | - | - | - | - |
* Rain since midnight (hover to see other rain measurements)
** Current wind speed in m/s (hover to see current wind gust speed)